Find Local Weather

World > North America > United States > Florida

Key Biscayne, Florida Regional Weather

Lat: 25.69N, Lon: 80.16W
Wx Zone: FLZ173
Warning FLW WEATHER ALERT - FLOOD WATCH (More Info. Click Here) Warning Warning FLW SPECIAL WEATHER STATEMENT (More Info. Click Here) Warning
Feedback
Expires:201805261600;;560528
ASUS42 KTBW 261517
RWRFL 
FLORIDA REGIONAL WEATHER ROUNDUP
NATIONAL WEATHER SERVICE TAMPA BAY RUSKIN FL
1100 AM EDT SAT MAY 26 2018

NOTE: "FAIR" INDICATES FEW OR NO CLOUDS BELOW 12,000 FEET WITH NO
SIGNIFICANT WEATHER AND/OR OBSTRUCTIONS TO VISIBILITY.


FLZ067-068-071>074-168-172>174-261600-
SOUTHEAST FLORIDA 
  
CITY           SKY/WX    TMP DP  RH WIND       PRES   REMARKS
W PALM BEACH   HVY RAIN  75  73  93 E16G24    29.97R                  
BOCA RATON     MOSUNNY   79  73  83 SE14      29.96R                  
FT LAUDER-EXEC LGT RAIN  79  75  87 SE14      29.95S                  
FT LAUDERDALE  LGT RAIN  78  76  93 SE17      29.94S                  
POMPANO BEACH  LGT RAIN  79  73  82 SE16G22   29.95S                  
PEMBROKE PINES LGT RAIN  79  74  84 E13       29.96S                  
OPA LOCKA      LGT RAIN  78  75  90 E12       29.95S                  
MIAMI          LGT RAIN  77  75  93 E14       29.94S FOG              
WEST KENDALL   RAIN      75  72  90 S9        29.95R FOG              
HOMESTEAD      HVY RAIN  72  70  94 E14G21    29.95S FOG              

STATION/POSITION SKY/WX   TEMP    WIND        PRES    WAVE   SWELL
                          AIR SEA DIR/SP/G            HT/PER HT/PER
                          (F)     (DEG/KT/KT) (MB)    (FT/S) (FT/S)
VIRGINIA KEY               79 80   80/ 15/ 19 1013.2S
LAKE WORTH                 78 78  130/ 18/ 20 1015.4S
FOWEY ROCKS                78 79   90/ 24/ 25 1014.1S
SETTLEMENT POINT           78     120/ 13/ 14 1015.3S

$$

  

SKY/WX - Weather  TMP - Temperature  DP - Dewpoint  RH - Relative Humidity
WIND - Wind Direction/Speed PRES - Barometric Pressure